Tracking 19245 objects as of 21-Aug-2018
HD Live streaming from Space Station
objects crossing your sky now

ARIANE 5 R/B

Track ARIANE 5 R/B now!
10-day predictions


NORAD ID: 36034
Int'l Code: 2009-058C
Perigee: 244.3 km
Apogee: 25,426.8 km
Inclination: 6.0 °
Period: 441.5 minutes
Semi major axis: 19206 km
RCS: 21.239 m2 (large)
Launch date: October 29, 2009
Source: France (FR)
Launch site: FRENCH GUIANA (FRGUI)

Note: This is a ROCKET BODY
aabbcc
Your satellite tracking list
Your tracking list is empty




NASA's NSSDC Master Catalog

Two Line Element Set (TLE):
1 36034U 09058C   18232.21509827 +.00002194 +00000-0 +26063-3 0  9994
2 36034 005.9974 236.4008 6555724 002.8300 359.5670 03.26159684089929
Source of the keplerian elements: AFSPC